When you browse on this site, cookies collect data to enhance your experience and personalize the content and advertising you see.
Visit our Privacy Policy to learn more. By continuing to use the site, you agree to this use of cookies and data.
  • In Austria
  • List of Countries
  • For 7 days
  • Water Temperature
  • Weather Map
  • News
  • Weather Widgets
  • user-avatar
    Login

    Hourly Weather Sasaima

    Today, 17 November, Sunday

    Time Temperature Precipitation Wind Pressure Humidity
    00:00 +13°C° 0 mm 1 mps 599 mmHg 93%
    01:00 +13°C° 0 mm 1 mps 598 mmHg 92%
    02:00 +13°C° 0 mm 1 mps 598 mmHg 92%
    03:00 +13°C° 0 mm 1 mps 598 mmHg 91%
    04:00 +13°C° 0 mm 1 mps 598 mmHg 91%
    05:00 +13°C° 0 mm 1 mps 599 mmHg 89%
    06:00 +14°C° 0 mm 1 mps 599 mmHg 86%
    07:00 +15°C° 0 mm 1 mps 600 mmHg 84%
    08:00 +18°C° 0 mm 1 mps 601 mmHg 77%
    09:00 +20°C° 0 mm 1 mps 602 mmHg 71%
    10:00 +21°C° 0 mm 2 mps 602 mmHg 64%
    11:00 +21°C° 0 mm 2 mps 602 mmHg 63%
    12:00 +23°C° 0 mm 2 mps 601 mmHg 62%
    13:00 +23°C° 0 mm 2 mps 601 mmHg 61%
    14:00 +21°C° 0.3 mm 2 mps 600 mmHg 67%
    15:00 +21°C° 0.3 mm 2 mps 599 mmHg 73%
    16:00 +21°C° 0.3 mm 1 mps 599 mmHg 79%
    17:00 +19°C° 0.5 mm 1 mps 599 mmHg 85%
    18:00 +18°C° 0.5 mm 1 mps 599 mmHg 90%
    19:00 +15°C° 0.5 mm 1 mps 599 mmHg 95%
    20:00 +15°C° 0.3 mm 1 mps 599 mmHg 95%
    21:00 +15°C° 0.3 mm 1 mps 599 mmHg 95%
    22:00 +14°C° 0.3 mm 1 mps 600 mmHg 95%
    23:00 +14°C° 0.2 mm 1 mps 599 mmHg 95%

    Tomorrow, 18 November, Monday

    Time Temperature Precipitation Wind Pressure Humidity
    00:00 +14°C° 0.2 mm 1 mps 599 mmHg 95%
    01:00 +13°C° 0.2 mm 1 mps 598 mmHg 95%
    02:00 +13°C° 0.1 mm 1 mps 598 mmHg 94%
    03:00 +13°C° 0.1 mm 1 mps 598 mmHg 94%
    04:00 +13°C° 0.1 mm 1 mps 598 mmHg 93%
    05:00 +13°C° 0 mm 1 mps 599 mmHg 91%
    06:00 +14°C° 0 mm 1 mps 599 mmHg 89%
    07:00 +15°C° 0 mm 1 mps 600 mmHg 88%
    08:00 +18°C° 0 mm 1 mps 601 mmHg 80%
    09:00 +20°C° 0 mm 1 mps 602 mmHg 73%
    10:00 +22°C° 0 mm 1 mps 602 mmHg 65%
    11:00 +21°C° 0.3 mm 2 mps 602 mmHg 68%
    12:00 +21°C° 0.3 mm 2 mps 601 mmHg 70%
    13:00 +21°C° 0.3 mm 2 mps 600 mmHg 73%
    14:00 +20°C° 0.5 mm 2 mps 600 mmHg 76%
    15:00 +21°C° 0.5 mm 1 mps 599 mmHg 80%
    16:00 +20°C° 0.5 mm 1 mps 599 mmHg 84%
    17:00 +19°C° 0.8 mm 1 mps 599 mmHg 88%
    18:00 +16°C° 0.8 mm 1 mps 599 mmHg 91%
    19:00 +15°C° 0.8 mm 1 mps 599 mmHg 95%
    20:00 +15°C° 0.5 mm 1 mps 599 mmHg 95%
    21:00 +14°C° 0.5 mm 1 mps 600 mmHg 94%
    22:00 +14°C° 0.5 mm 1 mps 600 mmHg 94%
    23:00 +14°C° 0.3 mm 1 mps 600 mmHg 94%

    Day after tomorrow, 19 November, Tuesday

    Time Temperature Precipitation Wind Pressure Humidity
    00:00 +14°C° 0.3 mm 1 mps 599 mmHg 94%
    01:00 +13°C° 0.3 mm 1 mps 599 mmHg 93%
    02:00 +13°C° 0 mm 1 mps 599 mmHg 93%
    03:00 +13°C° 0 mm 1 mps 599 mmHg 93%
    04:00 +13°C° 0 mm 1 mps 599 mmHg 93%
    05:00 +14°C° 0 mm 1 mps 600 mmHg 92%
    06:00 +14°C° 0 mm 1 mps 600 mmHg 90%
    07:00 +14°C° 0 mm 0 mps 601 mmHg 88%
    08:00 +16°C° 0.3 mm 1 mps 601 mmHg 86%
    09:00 +19°C° 0.3 mm 1 mps 602 mmHg 84%
    10:00 +20°C° 0.3 mm 1 mps 602 mmHg 82%
    11:00 +20°C° 0.5 mm 1 mps 602 mmHg 80%
    12:00 +21°C° 0.5 mm 1 mps 601 mmHg 78%
    13:00 +21°C° 0.5 mm 1 mps 601 mmHg 76%
    14:00 +20°C° 1 mm 1 mps 601 mmHg 80%
    15:00 +20°C° 1 mm 1 mps 600 mmHg 83%
    16:00 +20°C° 1 mm 1 mps 600 mmHg 87%
    17:00 +18°C° 0.6 mm 1 mps 600 mmHg 89%
    18:00 +16°C° 0.6 mm 1 mps 600 mmHg 92%
    19:00 +15°C° 0.6 mm 1 mps 600 mmHg 95%
    20:00 +15°C° 0.5 mm 1 mps 600 mmHg 95%
    21:00 +14°C° 0.5 mm 1 mps 600 mmHg 94%
    22:00 +14°C° 0.5 mm 1 mps 601 mmHg 94%
    23:00 +14°C° 0.1 mm 1 mps 600 mmHg 94%

    20 November, Wednesday

    Time Temperature Precipitation Wind Pressure Humidity
    00:00 +14°C° 0.1 mm 1 mps 600 mmHg 94%
    01:00 +14°C° 0.1 mm 1 mps 600 mmHg 94%
    02:00 +13°C° 0.2 mm 1 mps 600 mmHg 94%
    03:00 +13°C° 0.2 mm 1 mps 599 mmHg 94%
    04:00 +13°C° 0.2 mm 1 mps 599 mmHg 95%
    05:00 +14°C° 0 mm 1 mps 600 mmHg 93%
    06:00 +13°C° 0 mm 0 mps 601 mmHg 92%
    07:00 +14°C° 0 mm 0 mps 601 mmHg 91%
    08:00 +16°C° 0.2 mm 1 mps 602 mmHg 86%
    09:00 +19°C° 0.2 mm 1 mps 602 mmHg 81%
    10:00 +19°C° 0.2 mm 2 mps 603 mmHg 75%
    11:00 +20°C° 0.6 mm 2 mps 602 mmHg 75%
    12:00 +20°C° 0.6 mm 2 mps 602 mmHg 75%
    13:00 +20°C° 0.6 mm 2 mps 601 mmHg 75%
    14:00 +21°C° 0.9 mm 1 mps 601 mmHg 79%
    15:00 +20°C° 0.9 mm 1 mps 600 mmHg 83%
    16:00 +19°C° 0.9 mm 1 mps 599 mmHg 87%
    17:00 +18°C° 0.7 mm 1 mps 600 mmHg 90%
    18:00 +16°C° 0.7 mm 1 mps 600 mmHg 93%
    19:00 +15°C° 0.7 mm 1 mps 600 mmHg 95%
    20:00 +14°C° 0.3 mm 1 mps 600 mmHg 95%
    21:00 +14°C° 0.3 mm 1 mps 600 mmHg 95%
    22:00 +14°C° 0.3 mm 1 mps 600 mmHg 94%
    23:00 +13°C° 0.1 mm 1 mps 600 mmHg 94%

    21 November, Thursday

    Time Temperature Precipitation Wind Pressure Humidity
    00:00 +13°C° 0.1 mm 1 mps 600 mmHg 94%
    01:00 +13°C° 0.1 mm 1 mps 599 mmHg 93%
    02:00 +13°C° 0 mm 1 mps 599 mmHg 93%
    03:00 +13°C° 0 mm 1 mps 599 mmHg 93%
    04:00 +13°C° 0 mm 1 mps 599 mmHg 93%
    05:00 +13°C° 0 mm 1 mps 600 mmHg 91%
    06:00 +13°C° 0 mm 0 mps 600 mmHg 90%
    07:00 +13°C° 0 mm 0 mps 601 mmHg 89%
    08:00 +16°C° 0.2 mm 1 mps 602 mmHg 85%
    09:00 +18°C° 0.2 mm 1 mps 602 mmHg 81%
    10:00 +20°C° 0.2 mm 1 mps 603 mmHg 78%
    11:00 +20°C° 0.7 mm 1 mps 602 mmHg 79%
    12:00 +20°C° 0.7 mm 1 mps 601 mmHg 81%
    13:00 +20°C° 0.7 mm 1 mps 601 mmHg 83%
    14:00 +20°C° 0.8 mm 1 mps 600 mmHg 84%
    15:00 +20°C° 0.8 mm 1 mps 600 mmHg 85%
    16:00 +19°C° 0.8 mm 1 mps 599 mmHg 86%
    17:00 +18°C° 0.6 mm 1 mps 599 mmHg 89%
    18:00 +16°C° 0.6 mm 1 mps 599 mmHg 93%
    19:00 +15°C° 0.6 mm 1 mps 599 mmHg 96%
    20:00 +14°C° 0.4 mm 1 mps 600 mmHg 95%
    21:00 +14°C° 0.4 mm 1 mps 600 mmHg 93%
    22:00 +14°C° 0.4 mm 1 mps 600 mmHg 92%
    23:00 +14°C° 0.2 mm 1 mps 600 mmHg 92%

    22 November, Friday

    Time Temperature Precipitation Wind Pressure Humidity
    00:00 +13°C° 0.2 mm 1 mps 599 mmHg 92%
    01:00 +13°C° 0.2 mm 1 mps 599 mmHg 92%
    02:00 +13°C° 0.2 mm 1 mps 599 mmHg 93%
    03:00 +13°C° 0.2 mm 1 mps 599 mmHg 93%
    04:00 +13°C° 0.2 mm 1 mps 599 mmHg 94%
    05:00 +13°C° 0.1 mm 1 mps 599 mmHg 93%
    06:00 +13°C° 0.1 mm 0 mps 600 mmHg 92%
    07:00 +13°C° 0.1 mm 0 mps 601 mmHg 91%
    08:00 +16°C° 0.2 mm 1 mps 601 mmHg 88%
    09:00 +18°C° 0.2 mm 1 mps 602 mmHg 85%
    10:00 +19°C° 0.2 mm 1 mps 602 mmHg 83%
    11:00 +19°C° 1 mm 1 mps 602 mmHg 84%
    12:00 +19°C° 1 mm 1 mps 601 mmHg 85%
    13:00 +19°C° 1 mm 1 mps 600 mmHg 86%
    14:00 +19°C° 0.8 mm 1 mps 600 mmHg 86%
    15:00 +19°C° 0.8 mm 1 mps 599 mmHg 87%
    16:00 +19°C° 0.8 mm 1 mps 599 mmHg 87%
    17:00 +18°C° 0.8 mm 1 mps 599 mmHg 89%
    18:00 +16°C° 0.8 mm 1 mps 599 mmHg 92%
    19:00 +15°C° 0.8 mm 1 mps 599 mmHg 94%
    20:00 +14°C° 0.1 mm 1 mps 599 mmHg 94%
    21:00 +14°C° 0.1 mm 1 mps 599 mmHg 93%
    22:00 +13°C° 0.1 mm 1 mps 600 mmHg 93%
    23:00 +13°C° 0.1 mm 1 mps 599 mmHg 93%
    Show more